QPF
0.00 0.01 0.01 0.00 0.00 0.00 0.00 0.01 0.01 0.00 0.01 0.01 0.02 0.01 0.00 0.00 0.00 0.00 0.00 0.00 0.00 0.00 0.00 0.00 0.00 0.00 0.00 0.02 0.03 0.04 0.04 0.03 0.02 0.02 0.02 0.02 0.02 0.04 0.04 0.05 0.04 0.04 0.04 0.04
0.00 0.01 0.01 0.00 0.00 0.00 0.00 0.00 0.00 0.00 0.00 0.00 0.00 0.01 0.01 0.00 0.00 0.00 0.00 0.00 0.00 0.00 0.00 0.00 0.00 0.00 0.01 0.01 0.02 0.03 0.03 0.03 0.02 0.02 0.03 0.03 0.04 0.04 0.05 0.05 0.06 0.05 0.04 0.03
0.00 0.01 0.02 0.01 0.00 0.00 0.00 0.00 0.00 0.00 0.00 0.00 0.00 0.00 0.00 0.00 0.01 0.01 0.01 0.01 0.00 0.00 0.00 0.00 0.01 0.01 0.02 0.02 0.02 0.02 0.03 0.03 0.04 0.03 0.04 0.05 0.04 0.05 0.04 0.04 0.04 0.05 0.05 0.04
0.00 0.01 0.02 0.01 0.00 0.00 0.00 0.00 0.00 0.00 0.00 0.00 0.00 0.00 0.00 0.00 0.00 0.01 0.01 0.01 0.01 0.01 0.01 0.01 0.01 0.01 0.01 0.01 0.01 0.02 0.03 0.03 0.03 0.03 0.03 0.03 0.03 0.03 0.04 0.04 0.03 0.03 0.03 0.03
0.01 0.01 0.01 0.01 0.01 0.01 0.01 0.01 0.01 0.01 0.01 0.01 0.01 0.01 0.01 0.01 0.01 0.00 0.00 0.00 0.00 0.01 0.01 0.01 0.01 0.01 0.01 0.00 0.01 0.01 0.02 0.03 0.03 0.03 0.03 0.03 0.03 0.04 0.03 0.03 0.03 0.03 0.03 0.03
0.01 0.02 0.03 0.03 0.01 0.01 0.01 0.02 0.02 0.01 0.01 0.01 0.02 0.03 0.03 0.01 0.01 0.01 0.00 0.00 0.00 0.01 0.01 0.01 0.01 0.01 0.01 0.00 0.01 0.01 0.01 0.01 0.02 0.03 0.04 0.04 0.04 0.05 0.04 0.03 0.03 0.03 0.02 0.02
0.02 0.02 0.03 0.01 0.01 0.02 0.06 0.08 0.02 0.01 0.01 0.02 0.02 0.03 0.03 0.02 0.01 0.01 0.01 0.01 0.02 0.03 0.02 0.02 0.02 0.02 0.02 0.01 0.01 0.01 0.01 0.02 0.02 0.02 0.02 0.03 0.03 0.03 0.04 0.03 0.03 0.03 0.03 0.02
0.04 0.05 0.07 0.04 0.03 0.06 0.07 0.04 0.01 0.03 0.04 0.03 0.02 0.01 0.02 0.02 0.02 0.03 0.05 0.08 0.10 0.06 0.03 0.03 0.03 0.02 0.02 0.02 0.03 0.03 0.02 0.02 0.02 0.03 0.02 0.02 0.02 0.02 0.02 0.02 0.02 0.02 0.02 0.03
0.05 0.07 0.08 0.06 0.05 0.04 0.03 0.02 0.02 0.02 0.04 0.04 0.04 0.04 0.02 0.03 0.04 0.05 0.06 0.06 0.04 0.03 0.03 0.03 0.03 0.02 0.03 0.04 0.04 0.04 0.04 0.04 0.04 0.04 0.03 0.02 0.02 0.02 0.02 0.02 0.02 0.01 0.02 0.01
0.05 0.05 0.04 0.03 0.02 0.02 0.02 0.02 0.02 0.02 0.02 0.03 0.06 0.07 0.05 0.03 0.03 0.02 0.02 0.03 0.03 0.03 0.03 0.03 0.05 0.06 0.05 0.06 0.06 0.06 0.06 0.06 0.06 0.05 0.05 0.04 0.03 0.02 0.02 0.02 0.02 0.01 0.01 0.01
0.04 0.03 0.02 0.02 0.01 0.02 0.02 0.02 0.03 0.02 0.02 0.02 0.02 0.04 0.05 0.05 0.04 0.03 0.03 0.05 0.05 0.05 0.04 0.06 0.09 0.09 0.09 0.10 0.08 0.09 0.08 0.07 0.07 0.06 0.06 0.05 0.05 0.04 0.03 0.03 0.02 0.02 0.02 0.02
0.03 0.03 0.03 0.03 0.01 0.01 0.02 0.02 0.03 0.01 0.01 0.01 0.01 0.02 0.02 0.03 0.04 0.04 0.04 0.04 0.05 0.05 0.06 0.08 0.08 0.08 0.09 0.09 0.08 0.08 0.07 0.05 0.05 0.05 0.05 0.05 0.05 0.06 0.03 0.02 0.02 0.01 0.01 0.02
0.02 0.01 0.02 0.02 0.02 0.01 0.02 0.02 0.02 0.02 0.03 0.02 0.02 0.02 0.02 0.02 0.02 0.03 0.03 0.05 0.06 0.06 0.06 0.06 0.06 0.06 0.06 0.05 0.05 0.05 0.04 0.04 0.04 0.04 0.05 0.05 0.05 0.05 0.03 0.02 0.01 0.01 0.01 0.03
0.02 0.01 0.01 0.02 0.02 0.01 0.01 0.02 0.02 0.03 0.03 0.03 0.03 0.04 0.03 0.03 0.03 0.03 0.03 0.04 0.04 0.05 0.05 0.05 0.05 0.04 0.04 0.04 0.04 0.04 0.04 0.05 0.07 0.07 0.06 0.06 0.05 0.04 0.03 0.03 0.02 0.01 0.02 0.04
0.03 0.02 0.01 0.02 0.02 0.02 0.01 0.02 0.02 0.03 0.03 0.02 0.03 0.04 0.05 0.03 0.03 0.04 0.04 0.04 0.04 0.04 0.04 0.02 0.02 0.02 0.02 0.02 0.03 0.03 0.03 0.03 0.03 0.04 0.05 0.05 0.05 0.05 0.04 0.04 0.03 0.02 0.02 0.02
0.03 0.02 0.01 0.02 0.03 0.03 0.02 0.01 0.02 0.02 0.02 0.02 0.03 0.04 0.05 0.05 0.04 0.04 0.04 0.04 0.03 0.02 0.02 0.02 0.02 0.02 0.01 0.01 0.01 0.02 0.02 0.02 0.02 0.02 0.03 0.04 0.05 0.04 0.03 0.04 0.03 0.02 0.01 0.01
0.03 0.03 0.03 0.03 0.04 0.03 0.02 0.02 0.02 0.02 0.02 0.02 0.02 0.02 0.03 0.04 0.03 0.03 0.03 0.02 0.02 0.02 0.01 0.01 0.02 0.02 0.02 0.01 0.02 0.02 0.02 0.01 0.01 0.01 0.01 0.02 0.03 0.03 0.02 0.02 0.02 0.02 0.02 0.02
0.04 0.03 0.03 0.04 0.04 0.04 0.03 0.03 0.02 0.03 0.03 0.02 0.01 0.01 0.02 0.02 0.03 0.02 0.02 0.02 0.02 0.02 0.01 0.02 0.02 0.02 0.02 0.02 0.02 0.02 0.02 0.01 0.01 0.01 0.01 0.01 0.01 0.01 0.01 0.01 0.01 0.01 0.01 0.01
0.04 0.04 0.03 0.04 0.03 0.03 0.04 0.04 0.04 0.02 0.01 0.01 0.01 0.02 0.02 0.02 0.03 0.03 0.02 0.03 0.03 0.03 0.03 0.03 0.02 0.02 0.02 0.02 0.02 0.02 0.02 0.01 0.01 0.01 0.01 0.01 0.01 0.01 0.01 0.01 0.01 0.01 0.01 0.01
0.03 0.04 0.04 0.05 0.03 0.03 0.03 0.03 0.03 0.02 0.01 0.01 0.01 0.02 0.02 0.02 0.02 0.02 0.03 0.03 0.03 0.02 0.03 0.03 0.02 0.02 0.02 0.02 0.01 0.01 0.01 0.01 0.01 0.01 0.01 0.01 0.01 0.02 0.02 0.02 0.02 0.02 0.01 0.01
0.04 0.05 0.05 0.05 0.04 0.04 0.03 0.03 0.02 0.02 0.01 0.01 0.02 0.02 0.02 0.01 0.02 0.03 0.04 0.03 0.03 0.01 0.01 0.01 0.01 0.02 0.02 0.01 0.01 0.02 0.02 0.01 0.01 0.00 0.00 0.01 0.01 0.02 0.02 0.02 0.02 0.02 0.01 0.01
0.04 0.05 0.04 0.04 0.05 0.04 0.04 0.03 0.02 0.02 0.02 0.02 0.02 0.02 0.02 0.02 0.02 0.03 0.02 0.02 0.02 0.01 0.01 0.01 0.01 0.02 0.01 0.01 0.01 0.02 0.02 0.01 0.01 0.01 0.01 0.01 0.01 0.02 0.02 0.02 0.02 0.02 0.02 0.02
0.04 0.04 0.04 0.03 0.03 0.05 0.04 0.03 0.02 0.02 0.03 0.03 0.02 0.02 0.02 0.01 0.01 0.02 0.02 0.01 0.01 0.01 0.01 0.01 0.01 0.02 0.01 0.01 0.01 0.01 0.01 0.01 0.01 0.01 0.01 0.02 0.02 0.02 0.02 0.01 0.02 0.02 0.02 0.02
0.04 0.04 0.04 0.03 0.03 0.05 0.04 0.03 0.01 0.01 0.01 0.01 0.01 0.02 0.02 0.02 0.02 0.01 0.01 0.02 0.02 0.01 0.01 0.01 0.02 0.02 0.02 0.02 0.01 0.01 0.01 0.01 0.02 0.02 0.02 0.02 0.02 0.02 0.02 0.03 0.03 0.03 0.03 0.03
0.04 0.04 0.04 0.04 0.04 0.05 0.04 0.03 0.02 0.02 0.02 0.01 0.01 0.02 0.02 0.02 0.02 0.02 0.02 0.01 0.02 0.02 0.01 0.02 0.02 0.02 0.01 0.01 0.01 0.01 0.01 0.02 0.02 0.02 0.03 0.02 0.03 0.03 0.04 0.04 0.05 0.05 0.05 0.05
0.05 0.04 0.03 0.04 0.05 0.05 0.04 0.03 0.03 0.02 0.02 0.03 0.03 0.03 0.02 0.03 0.03 0.02 0.02 0.01 0.02 0.03 0.02 0.02 0.02 0.01 0.01 0.01 0.01 0.01 0.01 0.01 0.01 0.01 0.03 0.04 0.06 0.08 0.08 0.07 0.06 0.05 0.05 0.05
0.04 0.04 0.04 0.04 0.04 0.05 0.03 0.02 0.02 0.03 0.03 0.02 0.02 0.02 0.02 0.04 0.04 0.03 0.03 0.03 0.03 0.03 0.02 0.02 0.02 0.01 0.01 0.01 0.01 0.01 0.01 0.00 0.00 0.01 0.02 0.03 0.05 0.07 0.08 0.07 0.06 0.05 0.05 0.05
MSLP
1002.17 1002.52 1002.92 1003.36 1003.80 1004.22 1004.54 1004.73 1004.75 1004.60 1004.29 1003.89 1003.45 1003.04 1002.71 1002.49 1002.36 1002.30 1002.25 1002.15 1001.94 1001.61 1001.15 1000.59 1000.01 999.47 999.05 998.83 998.85 999.11 999.59 1000.25 1001.02 1001.84 1002.65 1003.41 1004.09 1004.69 1005.21 1005.69 1006.13 1006.54 1006.95 1007.34
1002.89 1003.26 1003.63 1004.00 1004.36 1004.69 1004.95 1005.10 1005.11 1004.98 1004.73 1004.38 1003.98 1003.59 1003.25 1002.97 1002.77 1002.61 1002.47 1002.29 1002.05 1001.72 1001.31 1000.84 1000.36 999.93 999.60 999.45 999.49 999.74 1000.16 1000.74 1001.42 1002.15 1002.88 1003.57 1004.21 1004.79 1005.31 1005.79 1006.24 1006.66 1007.07 1007.45
1003.66 1004.07 1004.43 1004.77 1005.09 1005.36 1005.57 1005.70 1005.70 1005.59 1005.35 1005.01 1004.61 1004.19 1003.78 1003.40 1003.07 1002.79 1002.53 1002.27 1001.99 1001.68 1001.34 1000.98 1000.63 1000.35 1000.16 1000.11 1000.21 1000.46 1000.86 1001.37 1001.96 1002.59 1003.23 1003.84 1004.42 1004.96 1005.46 1005.93 1006.37 1006.79 1007.19 1007.55
1004.42 1004.87 1005.25 1005.59 1005.88 1006.13 1006.32 1006.43 1006.43 1006.32 1006.08 1005.73 1005.29 1004.80 1004.28 1003.77 1003.30 1002.87 1002.48 1002.13 1001.81 1001.52 1001.25 1001.01 1000.82 1000.69 1000.65 1000.72 1000.90 1001.18 1001.57 1002.03 1002.54 1003.08 1003.63 1004.16 1004.67 1005.15 1005.61 1006.06 1006.48 1006.88 1007.25 1007.59
1005.10 1005.58 1005.99 1006.33 1006.63 1006.87 1007.06 1007.16 1007.17 1007.05 1006.81 1006.43 1005.94 1005.37 1004.75 1004.11 1003.49 1002.91 1002.40 1001.97 1001.61 1001.33 1001.13 1001.00 1000.95 1000.97 1001.07 1001.26 1001.52 1001.85 1002.23 1002.65 1003.10 1003.56 1004.01 1004.46 1004.90 1005.32 1005.74 1006.14 1006.53 1006.90 1007.24 1007.55
1005.64 1006.15 1006.58 1006.94 1007.24 1007.49 1007.68 1007.80 1007.81 1007.70 1007.45 1007.05 1006.53 1005.89 1005.18 1004.44 1003.70 1003.01 1002.40 1001.89 1001.50 1001.23 1001.08 1001.04 1001.09 1001.24 1001.46 1001.74 1002.07 1002.43 1002.82 1003.21 1003.60 1003.99 1004.37 1004.74 1005.11 1005.48 1005.84 1006.20 1006.55 1006.88 1007.19 1007.47
1006.02 1006.55 1006.99 1007.36 1007.67 1007.93 1008.13 1008.26 1008.28 1008.19 1007.95 1007.56 1007.02 1006.36 1005.61 1004.80 1004.00 1003.23 1002.56 1002.00 1001.59 1001.32 1001.21 1001.22 1001.35 1001.58 1001.88 1002.23 1002.60 1002.98 1003.36 1003.72 1004.07 1004.40 1004.71 1005.02 1005.32 1005.63 1005.94 1006.25 1006.56 1006.86 1007.14 1007.39
1006.26 1006.78 1007.22 1007.60 1007.92 1008.18 1008.40 1008.54 1008.59 1008.52 1008.31 1007.95 1007.44 1006.79 1006.05 1005.24 1004.42 1003.65 1002.95 1002.38 1001.96 1001.70 1001.60 1001.64 1001.81 1002.07 1002.41 1002.78 1003.16 1003.54 1003.90 1004.23 1004.53 1004.80 1005.06 1005.31 1005.56 1005.81 1006.07 1006.34 1006.61 1006.87 1007.12 1007.35
1006.38 1006.89 1007.33 1007.70 1008.02 1008.29 1008.51 1008.67 1008.74 1008.71 1008.55 1008.25 1007.80 1007.22 1006.54 1005.79 1005.01 1004.27 1003.60 1003.05 1002.64 1002.39 1002.29 1002.34 1002.50 1002.76 1003.09 1003.44 1003.80 1004.15 1004.47 1004.75 1005.01 1005.23 1005.44 1005.64 1005.83 1006.04 1006.25 1006.48 1006.71 1006.95 1007.18 1007.39
1006.46 1006.95 1007.37 1007.73 1008.05 1008.31 1008.54 1008.71 1008.82 1008.83 1008.73 1008.50 1008.15 1007.67 1007.09 1006.44 1005.76 1005.10 1004.50 1004.00 1003.62 1003.37 1003.27 1003.30 1003.43 1003.65 1003.92 1004.23 1004.53 1004.82 1005.09 1005.32 1005.52 1005.69 1005.85 1005.99 1006.14 1006.30 1006.48 1006.67 1006.87 1007.08 1007.29 1007.49
1006.53 1007.01 1007.41 1007.76 1008.06 1008.32 1008.55 1008.73 1008.86 1008.92 1008.89 1008.75 1008.50 1008.15 1007.70 1007.18 1006.63 1006.08 1005.58 1005.14 1004.80 1004.58 1004.46 1004.45 1004.53 1004.69 1004.89 1005.11 1005.33 1005.55 1005.74 1005.90 1006.04 1006.15 1006.26 1006.36 1006.47 1006.58 1006.72 1006.87 1007.04 1007.23 1007.42 1007.61
1006.65 1007.10 1007.49 1007.82 1008.11 1008.36 1008.59 1008.78 1008.94 1009.04 1009.07 1009.02 1008.88 1008.65 1008.34 1007.96 1007.55 1007.13 1006.73 1006.38 1006.09 1005.88 1005.75 1005.71 1005.72 1005.79 1005.90 1006.03 1006.16 1006.28 1006.38 1006.47 1006.53 1006.59 1006.64 1006.70 1006.76 1006.84 1006.94 1007.06 1007.19 1007.35 1007.52 1007.68
1006.82 1007.24 1007.61 1007.92 1008.20 1008.45 1008.68 1008.89 1009.06 1009.20 1009.29 1009.32 1009.27 1009.15 1008.97 1008.73 1008.46 1008.16 1007.87 1007.59 1007.36 1007.17 1007.03 1006.94 1006.89 1006.88 1006.89 1006.91 1006.94 1006.96 1006.98 1006.98 1006.98 1006.97 1006.97 1006.97 1006.99 1007.03 1007.09 1007.18 1007.28 1007.40 1007.54 1007.68
1007.02 1007.41 1007.76 1008.07 1008.34 1008.59 1008.83 1009.04 1009.24 1009.41 1009.54 1009.63 1009.66 1009.64 1009.56 1009.44 1009.28 1009.09 1008.89 1008.69 1008.51 1008.34 1008.19 1008.07 1007.96 1007.87 1007.79 1007.72 1007.65 1007.58 1007.50 1007.43 1007.35 1007.28 1007.22 1007.18 1007.16 1007.16 1007.18 1007.23 1007.30 1007.39 1007.49 1007.58
1007.22 1007.59 1007.92 1008.22 1008.50 1008.76 1009.00 1009.24 1009.45 1009.65 1009.81 1009.95 1010.04 1010.09 1010.09 1010.05 1009.98 1009.88 1009.76 1009.63 1009.48 1009.34 1009.19 1009.04 1008.89 1008.74 1008.59 1008.43 1008.27 1008.11 1007.96 1007.81 1007.67 1007.54 1007.43 1007.34 1007.27 1007.23 1007.22 1007.23 1007.26 1007.31 1007.37 1007.43
1007.41 1007.75 1008.07 1008.38 1008.66 1008.94 1009.21 1009.46 1009.69 1009.91 1010.10 1010.27 1010.39 1010.49 1010.55 1010.57 1010.56 1010.53 1010.46 1010.38 1010.27 1010.15 1010.01 1009.85 1009.67 1009.47 1009.27 1009.05 1008.82 1008.59 1008.37 1008.15 1007.95 1007.77 1007.61 1007.47 1007.37 1007.29 1007.24 1007.22 1007.21 1007.23 1007.25 1007.27
1007.58 1007.90 1008.21 1008.53 1008.84 1009.14 1009.43 1009.70 1009.96 1010.19 1010.40 1010.58 1010.73 1010.85 1010.94 1011.00 1011.03 1011.04 1011.02 1010.97 1010.90 1010.80 1010.67 1010.51 1010.32 1010.10 1009.86 1009.60 1009.32 1009.04 1008.76 1008.49 1008.24 1008.01 1007.81 1007.63 1007.49 1007.38 1007.29 1007.23 1007.20 1007.18 1007.16 1007.15
1007.74 1008.05 1008.37 1008.70 1009.03 1009.36 1009.68 1009.98 1010.25 1010.50 1010.72 1010.90 1011.06 1011.18 1011.28 1011.36 1011.41 1011.44 1011.45 1011.43 1011.39 1011.31 1011.20 1011.05 1010.87 1010.64 1010.39 1010.10 1009.80 1009.48 1009.16 1008.85 1008.56 1008.29 1008.04 1007.83 1007.65 1007.51 1007.40 1007.31 1007.25 1007.20 1007.16 1007.11
1007.93 1008.23 1008.56 1008.91 1009.27 1009.62 1009.96 1010.28 1010.57 1010.82 1011.04 1011.22 1011.37 1011.49 1011.58 1011.66 1011.72 1011.76 1011.78 1011.79 1011.77 1011.71 1011.62 1011.49 1011.32 1011.11 1010.85 1010.56 1010.24 1009.91 1009.56 1009.22 1008.90 1008.59 1008.32 1008.08 1007.87 1007.70 1007.56 1007.46 1007.37 1007.30 1007.24 1007.17
1008.18 1008.49 1008.83 1009.19 1009.57 1009.93 1010.29 1010.61 1010.90 1011.15 1011.35 1011.52 1011.65 1011.76 1011.84 1011.90 1011.96 1012.00 1012.03 1012.04 1012.04 1012.01 1011.94 1011.83 1011.68 1011.48 1011.23 1010.95 1010.63 1010.28 1009.93 1009.57 1009.22 1008.90 1008.60 1008.33 1008.11 1007.92 1007.77 1007.64 1007.54 1007.46 1007.39 1007.31
1008.50 1008.82 1009.17 1009.54 1009.92 1010.28 1010.63 1010.94 1011.21 1011.44 1011.63 1011.77 1011.88 1011.97 1012.03 1012.07 1012.11 1012.15 1012.17 1012.19 1012.19 1012.17 1012.12 1012.03 1011.90 1011.72 1011.49 1011.21 1010.90 1010.56 1010.21 1009.84 1009.49 1009.15 1008.84 1008.57 1008.33 1008.14 1007.97 1007.84 1007.74 1007.65 1007.58 1007.50
1008.89 1009.22 1009.57 1009.93 1010.28 1010.63 1010.94 1011.22 1011.47 1011.67 1011.82 1011.94 1012.02 1012.08 1012.11 1012.14 1012.16 1012.18 1012.19 1012.20 1012.20 1012.19 1012.14 1012.06 1011.95 1011.78 1011.57 1011.32 1011.02 1010.70 1010.35 1010.00 1009.65 1009.32 1009.02 1008.75 1008.51 1008.32 1008.16 1008.04 1007.94 1007.85 1007.78 1007.70
1009.31 1009.64 1009.97 1010.30 1010.61 1010.91 1011.18 1011.42 1011.62 1011.78 1011.90 1011.98 1012.04 1012.07 1012.08 1012.08 1012.08 1012.07 1012.07 1012.06 1012.05 1012.02 1011.98 1011.90 1011.79 1011.64 1011.46 1011.23 1010.96 1010.66 1010.34 1010.02 1009.70 1009.39 1009.11 1008.86 1008.65 1008.48 1008.33 1008.22 1008.13 1008.05 1007.98 1007.91
1009.71 1010.02 1010.31 1010.59 1010.84 1011.08 1011.29 1011.47 1011.62 1011.74 1011.83 1011.88 1011.91 1011.92 1011.91 1011.89 1011.86 1011.83 1011.80 1011.77 1011.73 1011.69 1011.63 1011.55 1011.45 1011.32 1011.15 1010.95 1010.72 1010.47 1010.20 1009.92 1009.65 1009.39 1009.16 1008.95 1008.77 1008.63 1008.51 1008.42 1008.34 1008.28 1008.21 1008.13
1010.03 1010.29 1010.53 1010.74 1010.93 1011.10 1011.24 1011.37 1011.47 1011.56 1011.62 1011.65 1011.66 1011.66 1011.63 1011.59 1011.54 1011.48 1011.42 1011.36 1011.29 1011.22 1011.15 1011.06 1010.96 1010.84 1010.71 1010.55 1010.37 1010.18 1009.98 1009.77 1009.57 1009.38 1009.21 1009.06 1008.93 1008.83 1008.74 1008.67 1008.61 1008.55 1008.47 1008.39
1010.21 1010.43 1010.60 1010.74 1010.86 1010.96 1011.05 1011.13 1011.20 1011.26 1011.30 1011.33 1011.33 1011.32 1011.29 1011.23 1011.16 1011.08 1010.99 1010.89 1010.80 1010.70 1010.60 1010.51 1010.41 1010.32 1010.21 1010.11 1010.00 1009.88 1009.76 1009.65 1009.53 1009.43 1009.34 1009.26 1009.19 1009.13 1009.08 1009.03 1008.97 1008.90 1008.81 1008.69
1010.26 1010.41 1010.52 1010.60 1010.66 1010.70 1010.75 1010.80 1010.85 1010.90 1010.95 1010.98 1010.99 1010.98 1010.95 1010.89 1010.80 1010.70 1010.58 1010.45 1010.33 1010.21 1010.10 1010.00 1009.91 1009.84 1009.79 1009.74 1009.71 1009.68 1009.66 1009.64 1009.63 1009.62 1009.61 1009.60 1009.59 1009.57 1009.54 1009.49 1009.42 1009.33 1009.19 1009.03
Thickness
5787 5799 5804 5803 5805 5810 5806 5803 5796 5801 5804 5810 5816 5819 5821 5824 5823 5819 5816 5815 5814 5812 5811 5811 5810 5810 5808 5806 5803 5800 5796 5792 5789 5786 5783 5779 5776 5773 5770 5767 5765 5763 5761 5758
5774 5790 5794 5794 5802 5804 5805 5807 5805 5803 5800 5817 5817 5817 5815 5814 5813 5809 5808 5809 5808 5807 5806 5805 5805 5804 5803 5801 5799 5796 5792 5789 5786 5782 5779 5775 5772 5768 5765 5762 5760 5759 5756 5754
5758 5777 5776 5769 5790 5797 5800 5807 5804 5792 5799 5810 5805 5805 5805 5806 5806 5804 5803 5802 5801 5801 5800 5800 5801 5800 5797 5796 5795 5791 5787 5784 5781 5777 5774 5770 5767 5763 5760 5757 5755 5752 5751 5748
5751 5754 5736 5770 5802 5802 5798 5800 5805 5801 5802 5804 5801 5802 5804 5804 5800 5798 5797 5796 5796 5796 5795 5796 5796 5796 5795 5792 5789 5785 5781 5778 5775 5772 5769 5766 5762 5757 5755 5753 5750 5748 5746 5744
5743 5739 5746 5770 5786 5790 5784 5783 5797 5794 5794 5796 5799 5795 5790 5795 5795 5793 5792 5791 5790 5790 5790 5789 5789 5789 5788 5785 5781 5778 5774 5772 5770 5767 5764 5760 5756 5753 5751 5749 5746 5743 5741 5739
5737 5728 5728 5753 5781 5794 5784 5765 5785 5787 5784 5784 5782 5768 5769 5782 5786 5786 5786 5785 5784 5784 5783 5780 5781 5782 5779 5776 5773 5771 5769 5767 5765 5763 5759 5755 5752 5749 5747 5744 5742 5740 5737 5734
5727 5727 5736 5760 5778 5779 5750 5750 5776 5780 5777 5774 5769 5768 5771 5775 5775 5775 5775 5776 5776 5775 5773 5772 5773 5773 5769 5768 5766 5766 5765 5762 5759 5757 5754 5751 5747 5744 5741 5738 5736 5734 5731 5729
5723 5717 5721 5757 5763 5750 5748 5764 5768 5769 5769 5767 5765 5767 5766 5764 5764 5764 5763 5764 5765 5764 5763 5764 5764 5762 5759 5757 5759 5759 5757 5754 5752 5750 5748 5746 5741 5738 5735 5732 5729 5727 5724 5722
5722 5721 5737 5748 5748 5752 5757 5755 5757 5759 5761 5762 5758 5755 5755 5754 5754 5753 5753 5753 5755 5753 5752 5752 5752 5752 5749 5749 5751 5750 5747 5745 5744 5743 5741 5739 5735 5731 5728 5725 5723 5720 5718 5715
5718 5725 5735 5739 5742 5745 5749 5749 5752 5753 5754 5754 5750 5747 5745 5744 5743 5742 5743 5743 5744 5742 5740 5739 5740 5741 5741 5742 5743 5741 5738 5736 5736 5734 5732 5729 5727 5725 5721 5718 5716 5713 5711 5709
5712 5721 5727 5730 5734 5737 5739 5742 5743 5745 5746 5743 5741 5737 5736 5734 5733 5732 5732 5732 5732 5730 5729 5729 5730 5730 5731 5732 5732 5731 5729 5728 5727 5726 5724 5721 5719 5717 5715 5712 5710 5707 5705 5703
5703 5714 5715 5717 5727 5731 5729 5730 5732 5732 5732 5733 5733 5729 5728 5725 5724 5724 5723 5723 5722 5720 5719 5719 5720 5720 5721 5722 5723 5721 5719 5719 5719 5719 5717 5716 5712 5709 5707 5706 5703 5701 5698 5696
5710 5714 5715 5717 5720 5722 5721 5722 5723 5722 5721 5721 5722 5720 5718 5716 5716 5714 5713 5713 5712 5711 5710 5710 5710 5710 5712 5713 5714 5713 5711 5711 5711 5711 5710 5709 5707 5704 5700 5697 5695 5693 5691 5688
5706 5706 5704 5706 5709 5712 5713 5714 5714 5713 5713 5712 5711 5709 5707 5706 5705 5704 5703 5703 5704 5703 5702 5701 5701 5701 5704 5705 5705 5705 5705 5704 5703 5703 5703 5702 5701 5699 5696 5693 5689 5687 5684 5681
5697 5699 5698 5700 5702 5703 5705 5704 5702 5700 5701 5701 5701 5699 5697 5695 5694 5693 5694 5694 5694 5693 5693 5692 5691 5692 5695 5695 5696 5696 5696 5696 5696 5696 5696 5695 5694 5692 5690 5688 5685 5683 5680 5675
5689 5691 5692 5692 5691 5692 5694 5694 5692 5690 5692 5692 5691 5690 5689 5688 5687 5686 5686 5685 5683 5682 5682 5682 5682 5684 5685 5686 5686 5687 5687 5687 5687 5687 5687 5686 5685 5684 5682 5679 5677 5675 5673 5670
5678 5679 5681 5681 5683 5685 5686 5687 5687 5685 5684 5684 5682 5682 5681 5679 5677 5676 5676 5676 5675 5675 5675 5674 5675 5676 5677 5678 5678 5679 5680 5680 5678 5678 5677 5676 5676 5674 5673 5671 5670 5668 5666 5664
5677 5678 5679 5679 5678 5678 5679 5681 5681 5679 5678 5677 5676 5673 5671 5669 5667 5667 5667 5667 5667 5666 5667 5668 5668 5668 5668 5668 5668 5669 5671 5672 5671 5670 5669 5668 5667 5666 5664 5663 5662 5660 5659 5656
5671 5672 5672 5673 5674 5674 5673 5673 5674 5673 5672 5670 5667 5664 5663 5662 5661 5660 5660 5659 5657 5657 5659 5660 5658 5659 5660 5660 5659 5660 5661 5663 5663 5662 5661 5659 5658 5657 5656 5654 5653 5652 5650 5647
5666 5666 5666 5667 5668 5668 5668 5668 5668 5666 5665 5663 5660 5658 5655 5655 5655 5654 5653 5652 5653 5653 5654 5653 5652 5653 5652 5652 5651 5653 5653 5654 5653 5653 5651 5650 5649 5648 5647 5646 5644 5642 5640 5638
5661 5662 5662 5663 5663 5663 5664 5664 5662 5659 5658 5657 5654 5651 5650 5649 5650 5648 5647 5647 5649 5649 5648 5646 5646 5645 5645 5644 5643 5645 5645 5645 5643 5642 5641 5640 5639 5638 5637 5636 5635 5633 5631 5629
5656 5656 5656 5657 5657 5657 5658 5658 5656 5654 5652 5650 5648 5647 5645 5644 5644 5644 5644 5643 5644 5641 5642 5643 5642 5638 5637 5636 5638 5637 5636 5635 5633 5632 5631 5630 5629 5628 5627 5625 5624 5622 5620 5618
5649 5649 5649 5649 5650 5650 5651 5651 5649 5648 5646 5644 5643 5642 5641 5641 5641 5640 5638 5640 5640 5635 5636 5636 5632 5629 5627 5630 5630 5629 5627 5626 5624 5622 5621 5620 5618 5617 5615 5614 5612 5610 5608 5607
5642 5643 5643 5644 5645 5644 5643 5645 5645 5644 5643 5642 5641 5640 5639 5637 5636 5636 5635 5632 5631 5629 5630 5627 5625 5624 5621 5622 5622 5620 5618 5617 5616 5614 5613 5611 5609 5608 5606 5604 5602 5600 5598 5597
5637 5638 5638 5638 5638 5638 5639 5639 5639 5638 5638 5638 5638 5637 5637 5635 5632 5631 5629 5628 5626 5624 5625 5623 5621 5618 5618 5618 5616 5614 5612 5610 5608 5606 5604 5602 5599 5597 5595 5594 5592 5590 5588 5586
5633 5633 5634 5634 5634 5633 5635 5635 5634 5634 5634 5632 5632 5632 5631 5629 5627 5625 5624 5623 5622 5620 5620 5618 5616 5613 5612 5611 5609 5607 5605 5602 5600 5598 5596 5593 5591 5588 5586 5584 5582 5580 5578 5576
5630 5630 5629 5630 5630 5631 5631 5630 5628 5628 5628 5626 5625 5625 5624 5623 5621 5619 5618 5617 5616 5615 5614 5612 5610 5608 5606 5604 5602 5600 5598 5595 5592 5589 5587 5584 5582 5579 5577 5575 5573 5571 5568 5566